Montpelier, VT

6:17 AM EDT on October 16, 2019 (GMT -0400)
Knapp State

Weather History for KMPV - September, 2019

Change the Weather History Date:

Thursday, September 19, 2019

  Actual Average Record
Temperature  
Mean Temperature 51 °F 56 °F  
Max Temperature 68 °F 67 °F 87 °F (1955)
Min Temperature 34 °F 45 °F 29 °F (1959)
Degree Days  
Heating Degree Days 14 9  
Month to date heating degree days 161 119  
Since 1 July heating degree days 229 227  
Cooling Degree Days 0 0  
Month to date cooling degree days 5 16  
Year to date cooling degree days 216 260  
Growing Degree Days 1 (Base 50)    
Moisture  
Dew Point 39 °F    
Average Humidity 85    
Maximum Humidity 100    
Minimum Humidity 35    
Precipitation  
Precipitation 0.00 in 0.11 in 1.01 in (1991)
Month to date precipitation 1.42 1.83  
Year to date precipitation 36.22 26.63  
Sea Level Pressure  
Sea Level Pressure 30.38 in    
Wind  
Wind Speed 1 mph ()    
Max Wind Speed 7 mph    
Max Gust Speed 9 mph    
Visibility 5.7 miles    
Events Fog    
T = Trace of Precipitation, MM = Missing Value Source: Averaged Metar Reports

Daily Weather History Graph

Daily Weather History Graph

Search for Another Location

Airport or City:

Astronomy

Sep. 19, 2019 Rise Set
Actual Time 6:33 AM EDT 6:53 PM EDT
Civil Twilight 6:04 AM EDT 7:22 PM EDT
Nautical Twilight 5:30 AM EDT 7:56 PM EDT
Astronomical Twilight 4:55 AM EDT 8:31 PM EDT
Moon 9:50 PM EDT (9/19) 11:44 AM EDT (9/19)
Length of Visible Light 13h 17m
Length of Day
12h 20m
Waning Gibbous, 74% of the Moon is Illuminated
Sep 19
Waning Gibbous
Sep 21
Last Quarter
Sep 28
New
Oct 5
First Quarter
Oct 13
Full

Hourly Weather History & Observations

Time (EDT) Temp. Windchill Dew Point Humidity Pressure Visibility Wind Dir Wind Speed Gust Speed Precip Events Conditions
12:51 AM 37.9 °F - 37.0 °F 97% 30.41 in 10.0 mi Calm Calm - N/A   Clear
1:07 AM 37.0 °F 34.5 °F 35.1 °F 93% 30.39 in 10.0 mi SE 3.5 mph - N/A   Scattered Clouds
1:46 AM 37.4 °F - 35.6 °F 93% 30.38 in 1.8 mi Calm Calm - N/A   Scattered Clouds
1:51 AM 37.0 °F - 36.0 °F 96% 30.41 in 0.8 mi Calm Calm - N/A   Mist
2:32 AM 36.0 °F - 36.0 °F 100% 30.38 in 1.2 mi Calm Calm - N/A   Overcast
2:41 AM 35.1 °F - 35.1 °F 100% 30.38 in 1.0 mi Calm Calm - N/A   Mist
2:44 AM 36.0 °F - 35.1 °F 97% 30.38 in 1.5 mi Calm Calm - N/A   Mostly Cloudy
2:46 AM 35.6 °F - 35.6 °F 100% 30.38 in 3.0 mi Calm Calm - N/A   Mostly Cloudy
2:51 AM 36.0 °F - 35.1 °F 97% 30.40 in 10.0 mi Calm Calm - N/A   Scattered Clouds
3:01 AM 36.0 °F - 34.0 °F 93% 30.38 in 1.0 mi Calm Calm - N/A   Mist
3:08 AM 35.1 °F - 35.1 °F 100% 30.38 in 0.2 mi Calm Calm - N/A Fog Fog
3:51 AM 36.0 °F - 36.0 °F 100% 30.40 in 0.2 mi Calm Calm - N/A Fog Fog
4:51 AM 37.0 °F - 37.0 °F 100% 30.40 in 0.2 mi Calm Calm - N/A Fog Fog
5:51 AM 35.1 °F - 35.1 °F 100% 30.40 in 0.2 mi Calm Calm - N/A Fog Fog
6:51 AM 34.0 °F - 34.0 °F 100% 30.43 in 0.2 mi Calm Calm - N/A Fog Fog
7:51 AM 37.0 °F - 37.0 °F 100% 30.43 in 0.2 mi Calm Calm - N/A Fog Fog
8:51 AM 37.9 °F - 37.9 °F 100% 30.44 in 0.2 mi Calm Calm - N/A Fog Fog
9:51 AM 41.0 °F - 41.0 °F 100% 30.44 in 1.0 mi Calm Calm - N/A   Mist
9:54 AM 42.1 °F - 42.1 °F 100% 30.40 in 1.8 mi Calm Calm - N/A   Overcast
10:12 AM 45.0 °F - 44.1 °F 97% 30.40 in 10.0 mi Calm Calm - N/A   Scattered Clouds
10:51 AM 51.1 °F - 46.0 °F 83% 30.42 in 10.0 mi Variable 3.5 mph - N/A   Clear
11:51 AM 59.0 °F - 42.1 °F 53% 30.39 in 10.0 mi Calm Calm - N/A   Clear
12:51 PM 62.1 °F - 41.0 °F 46% 30.38 in 10.0 mi Calm Calm - N/A   Clear
1:51 PM 66.0 °F - 39.9 °F 38% 30.36 in 10.0 mi SE 3.5 mph - N/A   Clear
2:51 PM 66.9 °F - 39.9 °F 37% 30.35 in 10.0 mi NE 3.5 mph - N/A   Clear
3:51 PM 66.9 °F - 39.9 °F 37% 30.34 in 10.0 mi Calm Calm - N/A   Clear
4:51 PM 68.0 °F - 39.0 °F 35% 30.33 in 10.0 mi Variable 4.6 mph - N/A   Clear
5:51 PM 64.0 °F - 44.1 °F 48% 30.34 in 10.0 mi Calm Calm - N/A   Clear
6:51 PM 53.1 °F - 46.9 °F 80% 30.33 in 10.0 mi South 3.5 mph - N/A   Clear
7:51 PM 51.1 °F - 46.9 °F 86% 30.33 in 10.0 mi Calm Calm - N/A   Clear
8:51 PM 46.9 °F - 44.1 °F 90% 30.33 in 10.0 mi South 3.5 mph - N/A   Clear
9:51 PM 46.0 °F 43.9 °F 43.0 °F 89% 30.33 in 10.0 mi South 4.6 mph - N/A   Clear
10:51 PM 44.1 °F - 43.0 °F 96% 30.31 in 10.0 mi Calm Calm - N/A   Clear
11:51 PM 42.1 °F - 41.0 °F 96% 30.31 in 10.0 mi Calm Calm - N/A   Clear